Weather in Osinovka

Russia / Samara Oblast     53°11′35″N   49°38′10″E
temp.,
°C
wind,
m/s
gust,
m/s
humid.,
%
clouds,
%
prec.,
mm/h
press.,
hPa
HPBL,
m
8 march, mon
mon801:00−6ssw71595100 1.8 1004974
04:00−5sw81695100 3.8 10001108
07:00−4sw81594100 1.0 999979
10:00−2wsw81484100 1.8 10011583
13:00−2wsw712720 0.0 10031329
16:00−1sw5107828 0.1 10031298
19:00−3ssw51096100 0.7 1002558
22:00−3wsw61290100 1.0 10031042
9 march, tue
tue901:00−8w5138867 0.1 1005484
04:00−13wsw339533 0.1 100959
07:00−14nw22927 0.0 101020
10:00−9sw118748 0.0 1011130
13:00−5s118399 0.0 1010378
16:00−5sw1081100 0.0 1009508
19:00−8nnw2396100 0.3 1008101
22:00−11nnw4993100 0.4 1009222
10 march, wed
wed1001:00−14nnw41093100 0.0 1009259
04:00−16nw4119589 0.0 1010264
07:00−15nw6119297 0.1 1011360
10:00−15nw7129096 0.1 1013482
13:00−15nw7119098 0.0 1015506
16:00−17nw6119098 0.1 1016513
19:00−20nnw61392100 0.1 1018473
22:00−21nnw51293100 0.1 1020460
11 march, thu
thu1101:00−23nnw4119594 0.0 1021304
04:00−25nnw4119683 0.0 1023258
07:00−25nnw4129647 0.0 1025247
10:00−21nnw5119247 0.0 1026347
13:00−16nw588742 0.0 1026477
16:00−13wnw588646 0.0 1025498
19:00−15nw389494 0.0 1026258
22:00−15nw399496 0.1 1027275
12 march, fri
fri1201:00−18nw339790 0.0 102985
04:00−18nw239886 0.0 103055
07:00−19nnw239744 0.0 103149
10:00−12nnw258728 0.0 1033247
13:00−8nw34800 0.0 1033355
16:00−7wnw34820 0.0 1033401
19:00−12w22930 0.0 103420
22:00−15wsw22950 0.0 103520